Daytona Beach, FL

9:38 PM EST on February 23, 2017 (GMT -0500)
Daytona Beach International

Weather History for KDAB - August, 2014

Change the Weather History Date:

Wednesday, August 13, 2014

  Actual Average Record
Temperature  
Mean Temperature 85 °F 82 °F  
Max Temperature 95 °F 90 °F 97 °F (1941)
Min Temperature 74 °F 74 °F 65 °F (1938)
Degree Days  
Heating Degree Days 0 0  
Month to date heating degree days 0 0  
Since 1 June heating degree days 0 0  
Since 1 July heating degree days 0 0  
Cooling Degree Days 20 17  
Month to date cooling degree days 232 221  
Year to date cooling degree days 1860 1784  
Since 1 June cooling degree days 1194 1183  
Growing Degree Days 33 (Base 50)    
Moisture  
Dew Point 74 °F    
Average Humidity 75    
Maximum Humidity 100    
Minimum Humidity 49    
Precipitation  
Precipitation T in 0.21 in 3.21 in (2004)
Month to date precipitation 1.23 2.53  
Year to date precipitation 32.16 29.26  
Sea Level Pressure  
Sea Level Pressure 29.98 in    
Wind  
Wind Speed 6 mph (SSW)    
Max Wind Speed 16 mph    
Max Gust Speed 21 mph    
Visibility 10 miles    
Events Rain    
T = Trace of Precipitation, MM = Missing Value Source: NWS Daily Summary

Daily Weather History Graph

Daily Weather History Graph

Search for Another Location

Airport or City:

Trip Planner

Search our weather history database for the weather conditions in past years. The results will help you decide how hot, cold, wet, or windy it might be!

Date:

Astronomy

Aug. 13, 2014 Rise Set
Actual Time 6:51 AM EDT 8:06 PM EDT
Civil Twilight 6:26 AM EDT 8:31 PM EDT
Nautical Twilight 5:56 AM EDT 9:00 PM EDT
Astronomical Twilight 5:26 AM EDT 9:31 PM EDT
Moon 10:12 PM EDT (8/13) 9:58 AM EDT (8/13)
Length of Visible Light 14h 04m
Length of Day
13h 14m
Waning Gibbous, 88% of the Moon is Illuminated
Aug 13
Waning Gibbous
Aug 17
Last Quarter
Aug 25
New
Sep 2
First Quarter
Sep 8
Full

Hourly Weather History & Observations

Time (EDT) Temp. Heat Index Dew Point Humidity Pressure Visibility Wind Dir Wind Speed Gust Speed Precip Events Conditions
12:53 AM 75.9 °F - 73.0 °F 91% 29.99 in 10.0 mi South 4.6 mph - N/A   Mostly Cloudy
1:53 AM 75.9 °F - 73.0 °F 91% 29.98 in 10.0 mi SSW 5.8 mph - N/A   Mostly Cloudy
2:53 AM 75.9 °F - 73.0 °F 91% 29.98 in 10.0 mi SW 4.6 mph - N/A   Mostly Cloudy
3:53 AM 75.0 °F - 73.0 °F 94% 29.97 in 10.0 mi SSW 4.6 mph - N/A   Scattered Clouds
4:53 AM 75.0 °F - 73.0 °F 94% 29.98 in 10.0 mi South 4.6 mph - N/A   Partly Cloudy
5:53 AM 73.9 °F - 73.0 °F 97% 29.98 in 10.0 mi SW 3.5 mph - N/A   Partly Cloudy
6:53 AM 75.0 °F - 73.9 °F 96% 30.00 in 9.0 mi SSW 4.6 mph - N/A   Partly Cloudy
7:53 AM 75.9 °F - 75.0 °F 97% 30.01 in 9.0 mi SSW 6.9 mph - N/A   Partly Cloudy
8:53 AM 81.0 °F 87.3 °F 75.9 °F 85% 30.01 in 10.0 mi SSW 9.2 mph - N/A   Partly Cloudy
9:53 AM 84.9 °F 94.1 °F 75.9 °F 74% 30.01 in 10.0 mi SW 10.4 mph - N/A   Partly Cloudy
10:53 AM 88.0 °F 96.5 °F 73.9 °F 63% 30.01 in 10.0 mi SW 12.7 mph - N/A   Partly Cloudy
11:53 AM 90.0 °F 99.0 °F 73.9 °F 59% 30.01 in 10.0 mi SW 10.4 mph - N/A   Scattered Clouds
12:53 PM 91.0 °F 100.4 °F 73.9 °F 57% 30.00 in 10.0 mi WSW 10.4 mph - N/A   Scattered Clouds
1:53 PM 91.0 °F 99.3 °F 73.0 °F 55% 29.98 in 10.0 mi SW 6.9 mph - N/A   Partly Cloudy
2:53 PM 91.9 °F 101.3 °F 73.9 °F 55% 29.96 in 10.0 mi WSW 9.2 mph - N/A   Scattered Clouds
3:53 PM 93.0 °F 100.1 °F 71.1 °F 49% 29.94 in 10.0 mi Variable 4.6 mph 16.1 mph N/A   Scattered Clouds
4:53 PM 93.0 °F 101.9 °F 73.0 °F 52% 29.95 in 10.0 mi SW 11.5 mph - N/A   Mostly Cloudy
5:53 PM 87.1 °F 95.4 °F 73.9 °F 65% 29.96 in 10.0 mi NE 13.8 mph - N/A   Mostly Cloudy
6:53 PM 84.0 °F 91.9 °F 75.0 °F 74% 29.97 in 10.0 mi NE 4.6 mph - 0.00 in   Mostly Cloudy
7:53 PM 82.0 °F 89.4 °F 75.9 °F 82% 29.97 in 10.0 mi East 4.6 mph - 0.00 in Rain Light Rain
8:53 PM 81.0 °F 86.7 °F 75.0 °F 82% 29.98 in 10.0 mi East 3.5 mph - 0.00 in   Mostly Cloudy
9:53 PM 80.1 °F 84.5 °F 73.9 °F 81% 29.97 in 10.0 mi SE 3.5 mph - N/A   Clear
10:53 PM 79.0 °F - 75.9 °F 90% 29.99 in 10.0 mi Calm Calm - N/A   Mostly Cloudy